Regional Weather Roundup
Issued by NWS Little Rock, AR

Home | Current Version | Previous Version | Graphics & Text | Print | Product List | Glossary On
Versions: 1 2 3 4 5 6 7 8 9 10 11 12 13 14 15 16 17 18 19 20 21 22 23 24 25 26 27 28 29 30 31 32 33 34 35 36 37 38 39 40 41 42 43 44 45 46 47 48 49 50
000
ASUS44 KLZK 302105
RWRLZK

WEATHER ROUNDUP FOR ARKANSAS
NATIONAL WEATHER SERVICE LITTLE ROCK AR
400 PM CDT TUE JUN 30 2015

NOTE: "FAIR" INDICATES FEW OR NO CLOUDS BELOW 12,000 FEET WITH NO
SIGNIFICANT WEATHER AND/OR OBSTRUCTIONS TO VISIBILITY.

ARZ001-003-010-029-302200-
NORTHWEST ARKANSAS

CITY           SKY/WX    TMP DP  RH WIND       PRES   REMARKS
FAYETTEVILLE   MOSUNNY   86  69  56 SW9       29.97F HX  90
FORT SMITH     SUNNY     93  65  39 NW10      29.93F HX  95
HARRISON       MOSUNNY   84  69  60 W6        29.97F HX  88
BENTONVILLE    MOSUNNY   88  70  55 NW7       29.98F HX  92
ROGERS         MOSUNNY   86  71  60 W8        29.97F HX  91
SILOAM SPGS    MOSUNNY   90  66  45 W8          N/A  HX  92
HIGHFILL       MOSUNNY   89  71  55 SW10      29.96F HX  95
SPRINGDALE     PTSUNNY   88  68  51 W9        29.98F HX  91
$$

ARZ004-005-016-302200-
NORTH CENTRAL ARKANSAS

CITY           SKY/WX    TMP DP  RH WIND       PRES   REMARKS
BATESVILLE     SUNNY     90  66  45 W6        29.92F HX  92
FLIPPIN          N/A     88  66  48 W7        29.92F HX  90
MTN HOME       MOSUNNY   85  67  54 VRB3      29.94F HX  87
$$

ARZ040-041-302200-
WEST CENTRAL ARKANSAS

CITY           SKY/WX    TMP DP  RH WIND       PRES   REMARKS
MENA           SUNNY     91  70  49 SW6       29.98F HX  97
MOUNT IDA      SUNNY     91  70  49 VRB5      29.94F HX  96
$$

ARZ009-017-025-026-028-302200-
NORTHEAST ARKANSAS

CITY           SKY/WX    TMP DP  RH WIND       PRES   REMARKS
JONESBORO      MOSUNNY   90  64  42 W8        29.91F HX  91
NEWPORT        MOSUNNY   92  65  40 W13       29.93F HX  94
WALNUT RIDGE   SUNNY     88  64  45 SW10      29.90F HX  89
BLYTHEVILLE    SUNNY     88  66  48 W12       29.91F HX  90
NW BLYTHEVILLE CLOUDY    88  66  48 SW10      29.91F HX  90
$$

ARZ022-023-033-042-044-302200-
CENTRAL ARKANSAS

CITY           SKY/WX    TMP DP  RH WIND       PRES   REMARKS
LITTLE ROCK    PTSUNNY   92  64  39 CALM      29.93F HX  93
N LITTLE ROCK  PTSUNNY   87  69  53 W5        29.93F HX  91
SEARCY         SUNNY     88  69  53 SW6       29.94F HX  92
HOT SPRINGS    MOSUNNY   90  69  50 W5        29.95F HX  94
RUSSELLVILLE   SUNNY     90  70  51 S6        29.93F HX  95
CLINTON        FAIR      86  73  66 SW6       29.95F HX  93
$$

ARZ036-302200-
EAST ARKANSAS

CITY           SKY/WX    TMP DP  RH WIND       PRES   REMARKS
WEST MEMPHIS   MOSUNNY   87  66  49 VRB6      29.91F HX  89
$$

ARZ050-053-066-070-073-302200-
SOUTHWEST ARKANSAS

CITY           SKY/WX    TMP DP  RH WIND       PRES   REMARKS
ARKADELPHIA    FAIR      94  73  50 NW6       29.94F HX 103
CAMDEN         SUNNY     93  68  43 NE6       29.94F HX  97
TEXARKANA      SUNNY     92  68  45 SW9       29.96F HX  96
EL DORADO      MOSUNNY   92  72  51 VRB5      29.95F HX  99
DE QUEEN       SUNNY     90  70  51 VRB5      29.94F HX  95
$$

ARZ056-057-069-302200-
SOUTHEAST ARKANSAS

CITY           SKY/WX    TMP DP  RH WIND       PRES   REMARKS
PINE BLUFF     SUNNY     90  68  48 NW6       29.94F HX  94
STUTTGART      SUNNY     90  70  51 MISG      29.95F HX  95
MONTICELLO     MOSUNNY   90  74  59 VRB7      29.94F HX  99

$$





USA.gov is the U.S. government's official web portal to all federal, state and local government web resources and services.